Tracking 20942 objects as of 15-Jul-2020
HD Live streaming from Space Station
objects crossing your sky now

SMS 2 AKM

Track SMS 2 AKM now!


NORAD ID: 20835
Int'l Code: 1975-011F
Perigee: 35,868.5 km
Apogee: 36,677.5 km
Inclination: 9.2 °
Period: 1,460.7 minutes
Semi major axis: 42644 km
RCS: 0.7943 m2 (medium)
Launch date: February 6, 1975
Source: United States (US)
Launch site: AIR FORCE EASTERN TEST RANGE (AFETR)

Note: This is a ROCKET BODY
aabbcc
Your satellite tracking list
Your tracking list is empty




NASA's NSSDC Master Catalog

Two Line Element Set (TLE):
1 20835U 75011F   20195.90919404 +.00000028 +00000-0 +00000-0 0  9995
2 20835 009.2252 301.2439 0094855 076.5184 291.4544 00.98586050025247
Source of the keplerian elements: AFSPC